www.pogodaiklimat.ru

Погода и климат >> Архив погоды >> Россия >> Орловская область >> Орел


АРХИВ ПОГОДЫ в Орле

Время (UTC), дата Ветер
(напр.,м/с)
 
Видим.   Явления Облачность Т
(С)
Тd
(С)
f
(%)
Тe
(С)
Тes
(С)
Комфортность P
(гПа)
Po
(гПа)
Тmin
(С)
Tmax
(С)
R
(мм)
R24
(мм)
S
(см)
00 12.12 СВ 2 10 км 10/6 600 м
[Sc As op]
+0.4 -1.0 90 -3 -3 тепло 1014.4 990.2
03 12.12 СВ 2 10 км 10/10 300 м
[St]
+0.6 -0.8 90 -3 -3 тепло 1013.8 989.7 +0.1
06 12.12 СВ 4 10 км 10/10 300 м
[St]
+0.6 -0.4 93 -5 -5 тепло 1014.0 989.8 +0.2 16
09 12.12 СВ 4 4000 м слабая крупа 10/10 300 м
[Cb cap]
+0.6 -0.4 93 -5 -5 по сезону 1012.3 988.2
12 12.12 СВ 4 2000 м слабый снег {ливн. осадки} 10/10 300 м
[Frnb Ns]
0.0 -0.7 95 -6 -6 по сезону 1011.5 987.4
15 12.12 СВ 3-10
{10}
2000 м слабый снег 10/10 200 м
[Frnb Ns]
-0.6 -1.4 94 -6 -6 по сезону 1011.5 987.3 3
18 12.12 СВ 3
{10}
2000 м слабый снег 10/10 200 м
[Frnb Ns]
-1.0 -1.5 96 -6 -6 по сезону 1012.1 987.8 +0.8 5
21 12.12 СВ 4 10 км {снег} 10/10 300 м
[St]
-1.2 -2.4 92 -7 -7 по сезону 1012.3 988.0
00 13.12 СВ 2 2000 м слабый снег 10/10 300 м
[Frnb Ns]
-1.5 -2.2 95 -6 -6 по сезону 1012.8 988.5
03 13.12 В 2 10 км {снег} 10/10 300 м
[St]
-1.3 -2.4 92 -5 -5 тепло 1013.0 988.7 -1.5 4
06 13.12 В 2 1000 м снег 10/10 300 м
[Frnb Ns]
-1.7 -2.4 95 -6 -6 по сезону 1014.2 989.8 -1.7 3 18
09 13.12 В 3 4000 м слабый снег 10/10 300 м
[Frnb Ns]
-1.3 -2.9 89 -6 -6 по сезону 1015.5 991.1
12 13.12 В 2 4000 м дымка {снег} 10/10 300 м
[St]
-1.3 -2.3 93 -5 -5 по сезону 1017.0 992.6
15 13.12 В 2 4000 м слабый снег 10/10 300 м
[Frnb Ns]
-1.3 -2.3 93 -5 -5 по сезону 1018.8 994.3 1
18 13.12 В 2 4000 м дымка {снег} 10/10 300 м
[St]
-1.5 -2.3 94 -6 -6 по сезону 1020.4 995.9 -1.2 0.6
21 13.12 СВ 2 1000 м дымка 10/10 300 м
[St]
-1.6 -1.9 98 -6 -6 по сезону 1021.6 997.1
00 14.12 СВ 2 4000 м слабая переохл. морось (гололёд) 10/10 300 м
[St]
-2.0 -2.7 95 -6 -6 по сезону 1022.5 997.9
03 14.12 СВ 2 4000 м слабый снег {морось} 10/10 300 м
[Frnb Ns]
-2.5 -3.3 94 -7 -7 по сезону 1022.9 998.2 -2.5 0.0
06 14.12 СВ 2 4000 м слабый снег {морось} 10/10 300 м
[Frnb Ns]
-3.1 -4.1 93 -7 -7 по сезону 1023.9 999.1 -3.1 0.0 18
09 14.12 СВ 2 4000 м дымка {снег} 10/10 300 м
[St]
-3.3 -4.8 89 -7 -7 по сезону 1024.7 999.9
12 14.12 С 2 10 км {снег} 10/10 300 м
[St]
-3.4 -4.8 90 -8 -8 по сезону 1025.2 1000.4
15 14.12 С 2 10 км слабый ливневой снег 10/10 300 м
[Cb calv]
-3.5 -4.9 90 -8 -8 по сезону 1025.9 1001.1 0.0
18 14.12 С 1 10 км слабый ливневой снег 10/10 300 м
[Cb calv]
-3.4 -4.4 93 -6 -6 по сезону 1026.3 1001.5 -2.8 0.0
21 14.12 СВ 1 10 км {ливн. осадки} 10/10 600 м
[Sc]
-2.8 -4.2 90 -5 -5 тепло 1026.7 1001.9
00 15.12 СВ 2 10 км {ливн. осадки} 10/10 600 м
[Sc]
-3.3 -5.0 88 -7 -7 по сезону 1027.7 1002.8
03 15.12 СВ 2 10 км 10/10 600 м
[Sc]
-3.2 -4.5 91 -7 -7 по сезону 1028.4 1003.5 -3.5 0.0
06 15.12 СВ 2 10 км 10/10 300 м
[St]
-2.8 -4.1 91 -7 -7 по сезону 1029.4 1004.6 -3.4 0.0 19
09 15.12 СВ 2 10 км 10/8 600 м
[Sc As op]
-2.4 -3.8 90 -6 -6 по сезону 1030.5 1005.6
12 15.12 С 2 10 км 10/4 600 м
[Sc As op]
-2.0 -3.0 93 -6 -6 по сезону 1031.4 1006.6
15 15.12 С 2 10 км 9/9 600 м
[Sc]
-2.2 -4.2 86 -6 -6 по сезону 1032.5 1007.6
18 15.12 С 2 10 км 10/10 600 м
[Sc]
-2.4 -4.0 89 -6 -6 по сезону 1033.3 1008.4 -2.0
21 15.12 С 2 10 км 10/10 600 м
[Sc]
-3.5 -4.9 90 -8 -8 по сезону 1034.4 1009.4
00 16.12 В 2 4000 м дымка 10/10 600 м
[Sc]
-4.9 -5.6 95 -9 -9 по сезону 1036.1 1010.9
03 16.12 СВ 2 4000 м дымка 10/10 600 м
[Sc]
-6.6 -7.1 96 -11 -11 по сезону 1036.8 1011.4 -6.6
06 16.12 В 1 4000 м дымка 10/10 600 м
[Sc]
-6.8 -7.5 95 -9 -9 по сезону 1037.4 1012.0 -6.9 18
09 16.12 В 2 4000 м дымка 10/10 600 м
[Sc]
-7.4 -8.2 94 -12 -12 по сезону 1038.1 1012.6
12 16.12 ЮВ 2 4000 м слабый снег 10/0
[As op]
-8.1 -9.0 93 -13 -13 прохладно 1037.8 1012.2
15 16.12 В 1 4000 м в посл. час снег 10/10 600 м
[Sc]
-8.0 -9.0 92 -10 -10 по сезону 1038.1 1012.5 0.2
18 16.12 ЮВ 3 4000 м слабый снег 10/0
[As op]
-8.4 -9.2 94 -14 -14 прохладно 1037.9 1012.3 -6.6 0.2
21 16.12 ЮВ 2 4000 м слабый снег 10/0
[As op]
-9.0 -9.8 94 -14 -14 по сезону 1037.9 1012.2
00 17.12 ЮВ 1 4000 м слабый снег 10/0
[As op]
-9.2 -10.1 93 -12 -12 по сезону 1037.1 1011.5
03 17.12 В 1 4000 м слабый снег 10/0
[As op]
-9.8 -10.8 92 -12 -12 по сезону 1036.8 1011.1 -10.0 0.2
06 17.12 ЮВ 1 4000 м слабый снег 10/10 300 м
[Frnb Ns]
-10.7 -11.9 91 -13 -13 по сезону 1036.6 1010.8 -10.7 0.4 19
09 17.12 ЮВ 2 10 км слабый снег 10/6 300 м
[Frnb As trans]
-10.6 -11.8 91 -15 -15 прохладно 1036.3 1010.5
12 17.12 В 2 10 км {снег} 9/0
[Ac trans Ci sp]
-11.5 -12.8 90 -16 -16 холодно 1035.5 1009.7
15 17.12 ЮВ 2 10 км ясно -13.8 -15.3 88 -19 -19 очень
холодно
1035.9 1009.8 0.4
18 17.12 ЮВ 2 10 км слабый снег 10/0
[As trans]
-14.2 -15.7 88 -19 -19 очень
холодно
1036.4 1010.3 -10.4 0.2
21 17.12 ЮВ 2 10 км слабый снег 10/0
[As op]
-13.2 -14.7 88 -18 -18 холодно 1036.2 1010.2
00 18.12 ЮВ 2 10 км слабый снег 10/0
[As op]
-12.0 -13.3 90 -17 -17 прохладно 1036.1 1010.2
03 18.12 ЮВ 2 10 км слабый снег 10/0
[As op]
-11.6 -12.9 90 -16 -16 прохладно 1035.9 1010.1 -14.7 0.2
06 18.12 ЮВ 2 10 км слабый снег 10/0
[As op]
-11.6 -12.9 90 -16 -16 прохладно 1036.3 1010.5 -14.5 0.2 19
09 18.12 ЮВ 2 10 км слабый снег 10/0
[As op]
-10.3 -11.6 90 -15 -15 прохладно 1036.3 1010.6
12 18.12 ЮВ 2 10 км слабый снег 10/0
[Ac As]
-9.6 -10.8 91 -14 -14 прохладно 1036.1 1010.4
15 18.12 В 1 10 км слабый снег 10/0
[As op]
-9.5 -10.7 91 -12 -12 по сезону 1036.0 1010.4 0.2
18 18.12 В 2 4000 м слабый снег 10/0
[As op]
-9.3 -10.5 91 -14 -14 по сезону 1035.7 1010.1 -9.1 0.2
21 18.12 В 1 4000 м слабый снег 10/0
[As op]
-9.3 -10.6 90 -12 -12 по сезону 1036.4 1010.8

 

Местоположение метеостанции Орел (Орловская область, Россия): широта 52.93 долгота 36.00 высота над уровнем моря 196 м.

В архиве по умолчанию представлена погода в Орле за последнюю неделю. Архивные данные за месяц целиком и за предыдущие месяцы, начиная с января 2011 года, Вы можете получить, выбрав интересующий диапазон дат из раскрывающегося списка и нажав кнопку "Ввод!".


*Определитесь, кто Вы:
робот инопланетянин человек

Внимание! Время в таблицах - всемирное. Для получения местного времени необходимо прибавить поправку, которая в Орле равна 3 ч.

Смотрите также архив погоды в соседних городах и на ближайших метеорологических станциях:

Погода в Болхове (Орловская область, Россия) (56 км)
Погода в Мценске (Орловская область, Россия) (61 км)
Погода в Карачеве (Брянская область, Россия) (70 км)
Погода в Понырях (Курская область, Россия) (71 км)
Погода в Дмитровск-Орловский (Орловская область, Россия) (75 км)
Погода в Железногорске (Курская область, Россия) (77 км)
Погода в Верховье (Орловская область, Россия) (86 км)
Погода в Фатеже (Курская область, Россия) (95 км)
Погода в Навле (Брянская область, Россия) (101 км)
Погода в Плавске (Тульская область, Россия) (114 км)

Пояснения к столбцам:

Ветер - указаны скорость ветра в м/с - средняя за 10 мин, порывы в срок и между сроками (в фигурных скобках) и направление, откуда дует ветер: С - северный, СВ - северо-восточный, В - восточный, ЮВ - юго-восточный, Ю - южный, ЮЗ - юго-западный, З - западный, СЗ - северо-западный.
Видимость - горизонтальная дальность видимости в метрах или километрах. При видимости от 1 до 10 км при отсутствии осадков обычно наблюдается дымка, при ухудшении видимости до 1 км и менее - туман. В сухую погоду видимость может ухудшаться дымом, пылью или мглою.
Явления - указаны атмосферные явления, наблюдавшиеся в срок или в последний час перед сроком; фигурными скобками обозначены явления, наблюдавшиеся между сроками (за 1-3 часа до срока); квадратными скобками обозначены град или гололедные отложения с указанием их диаметра в мм.
Облачность - указаны через наклонную черту общая и нижняя облачность в баллах и высота нижней границы облаков в метрах; квадратными скобками обозначены формы облаков: Ci - перистые, Cs - перисто-слоистые, Cc - перисто-кучевые, Ac - высококучевые, As - высокослоистые, Sc - слоисто-кучевые, Ns - слоисто-дождевые, Cu - кучевые, Cb - кучево-дождевые. Подробнее классификацию облаков см. в Атласе облаков (PDF).
T - Температура воздуха - температура, измеренная на высоте 2 м над землей.
Td - Температура точки росы - температура, при понижении до которой содержащийся в воздухе водяной пар достигнет насыщения.
f - Относительная влажность воздуха - влажноcть воздуха, измеренная на высоте 2 м над землей.
Te - Эффективная температура - температура, которую ощущает одетый по сезону человек в тени. Характеристика душности погоды. При расчете учитывается влияние влажности воздуха и скорости ветра на теплоощущения человека.
Tes - Эффективная температура на солнце - температура, которую ощущает человек, с поправкой на солнечный нагрев. Характеристика знойности погоды. Зависит от высоты солнца над горизонтом, облачности и скорости ветра. Ночью, в пасмурную погоду, а также при ветре 12 м/с и более поправка равна нулю.
P - Атмосферное давление - приведенное к уровню моря атмосферное давление.
Po - Атмосферное давление - измеренное на уровне метеостанции атмосферное давление.
Tmin - Минимальная температура - минимум температуры воздуха на высоте 2 м над землей.
Tmax - Максимальная температура - максимум температуры воздуха на высоте 2 м над землей.
R - Количество осадков - Количество выпавших осадков за период времени, мм. При наведении курсора мыши на число - период времени, за который выпало указанное количество осадков.
R24 - Количество осадков - Количество выпавших осадков за 24 часа, мм.
S - Снежный покров - Высота снежного покрова, см. При наведении курсора мыши на число - состояние снежного покрова и степень покрытия местности в баллах.